• In Uzbekistan
  • List of Countries
  • For 7 days
  • Water Temperature
  • Satellite Maps
  • Weather Map
  • Weather Widgets
  • user-avatar
    Login

    Hourly Weather Sarikamis

    Today, 22 June, Friday

    Time Temperature Precipitation Wind Pressure Humidity
    00:00 +10°C° 0.3 mm 1 mps 584 mmHg 88%
    01:00 +9°C° 0 mm 1 mps 584 mmHg 88%
    02:00 +9°C° 0 mm 1 mps 584 mmHg 89%
    03:00 +9°C° 0 mm 1 mps 583 mmHg 89%
    04:00 +9°C° 0 mm 1 mps 584 mmHg 87%
    05:00 +10°C° 0 mm 1 mps 584 mmHg 86%
    06:00 +11°C° 0 mm 1 mps 584 mmHg 84%
    07:00 +13°C° 0.2 mm 2 mps 585 mmHg 76%
    08:00 +15°C° 0.2 mm 2 mps 585 mmHg 68%
    09:00 +17°C° 0.2 mm 2 mps 586 mmHg 60%
    10:00 +18°C° 0.5 mm 2 mps 586 mmHg 55%
    11:00 +19°C° 0.5 mm 2 mps 587 mmHg 50%
    12:00 +21°C° 0.5 mm 1 mps 587 mmHg 45%
    13:00 +21°C° 0.2 mm 1 mps 587 mmHg 45%
    14:00 +21°C° 0.2 mm 1 mps 587 mmHg 46%
    15:00 +21°C° 0.2 mm 1 mps 587 mmHg 46%
    16:00 +20°C° 0.4 mm 1 mps 586 mmHg 50%
    17:00 +20°C° 0.4 mm 1 mps 586 mmHg 55%
    18:00 +19°C° 0.4 mm 1 mps 585 mmHg 59%
    19:00 +16°C° 0.9 mm 1 mps 585 mmHg 66%
    20:00 +14°C° 0.9 mm 1 mps 584 mmHg 72%
    21:00 +12°C° 0.9 mm 2 mps 583 mmHg 78%
    22:00 +10°C° 0.3 mm 2 mps 583 mmHg 81%
    23:00 +11°C° 0.3 mm 1 mps 583 mmHg 84%

    Tomorrow, 23 June, Saturday

    Time Temperature Precipitation Wind Pressure Humidity
    00:00 +10°C° 0.3 mm 1 mps 583 mmHg 87%
    01:00 +10°C° 0 mm 1 mps 583 mmHg 88%
    02:00 +9°C° 0 mm 1 mps 582 mmHg 89%
    03:00 +9°C° 0 mm 1 mps 582 mmHg 90%
    04:00 +9°C° 0 mm 1 mps 583 mmHg 87%
    05:00 +10°C° 0 mm 1 mps 583 mmHg 84%
    06:00 +11°C° 0 mm 1 mps 584 mmHg 81%
    07:00 +13°C° 0.1 mm 1 mps 584 mmHg 73%
    08:00 +15°C° 0.1 mm 1 mps 585 mmHg 65%
    09:00 +18°C° 0.1 mm 1 mps 586 mmHg 56%
    10:00 +20°C° 0.4 mm 1 mps 586 mmHg 52%
    11:00 +21°C° 0.4 mm 1 mps 587 mmHg 48%
    12:00 +21°C° 0.4 mm 2 mps 587 mmHg 43%
    13:00 +21°C° 0.1 mm 2 mps 587 mmHg 44%
    14:00 +22°C° 0.1 mm 1 mps 587 mmHg 45%
    15:00 +22°C° 0.1 mm 1 mps 587 mmHg 46%
    16:00 +22°C° 0.2 mm 1 mps 586 mmHg 48%
    17:00 +21°C° 0.2 mm 1 mps 586 mmHg 51%
    18:00 +21°C° 0.2 mm 1 mps 586 mmHg 54%
    19:00 +19°C° 0.6 mm 1 mps 586 mmHg 60%
    20:00 +16°C° 0.6 mm 1 mps 585 mmHg 66%
    21:00 +14°C° 0.6 mm 2 mps 585 mmHg 72%
    22:00 +13°C° 0.2 mm 2 mps 585 mmHg 75%
    23:00 +12°C° 0.2 mm 2 mps 584 mmHg 78%

    Day after tomorrow, 24 June, Sunday

    Time Temperature Precipitation Wind Pressure Humidity
    00:00 +12°C° 0.2 mm 1 mps 584 mmHg 82%
    01:00 +11°C° 0 mm 1 mps 584 mmHg 84%
    02:00 +10°C° 0 mm 1 mps 584 mmHg 86%
    03:00 +9°C° 0 mm 1 mps 583 mmHg 89%
    04:00 +10°C° 0 mm 1 mps 584 mmHg 86%
    05:00 +11°C° 0 mm 1 mps 584 mmHg 83%
    06:00 +12°C° 0 mm 1 mps 585 mmHg 80%
    07:00 +14°C° 0 mm 1 mps 585 mmHg 73%
    08:00 +16°C° 0 mm 1 mps 586 mmHg 65%
    09:00 +19°C° 0 mm 1 mps 587 mmHg 58%
    10:00 +20°C° 0.4 mm 1 mps 587 mmHg 53%
    11:00 +22°C° 0.4 mm 1 mps 588 mmHg 49%
    12:00 +23°C° 0.4 mm 1 mps 588 mmHg 44%
    13:00 +23°C° 0.6 mm 1 mps 588 mmHg 45%
    14:00 +23°C° 0.6 mm 2 mps 588 mmHg 45%
    15:00 +23°C° 0.6 mm 2 mps 588 mmHg 45%
    16:00 +21°C° 0.8 mm 2 mps 588 mmHg 49%
    17:00 +20°C° 0.8 mm 2 mps 587 mmHg 53%
    18:00 +20°C° 0.8 mm 3 mps 587 mmHg 57%
    19:00 +18°C° 0.4 mm 3 mps 587 mmHg 63%
    20:00 +16°C° 0.4 mm 2 mps 587 mmHg 70%
    21:00 +14°C° 0.4 mm 2 mps 586 mmHg 76%
    22:00 +13°C° 0.2 mm 2 mps 586 mmHg 80%
    23:00 +12°C° 0.2 mm 2 mps 586 mmHg 84%

    25 June, Monday

    Time Temperature Precipitation Wind Pressure Humidity
    00:00 +10°C° 0.2 mm 2 mps 585 mmHg 89%
    01:00 +9°C° 0 mm 2 mps 585 mmHg 89%
    02:00 +10°C° 0 mm 1 mps 585 mmHg 90%
    03:00 +9°C° 0 mm 1 mps 585 mmHg 91%
    04:00 +10°C° 0 mm 1 mps 585 mmHg 88%
    05:00 +11°C° 0 mm 1 mps 586 mmHg 85%
    06:00 +12°C° 0 mm 1 mps 586 mmHg 82%
    07:00 +14°C° 0 mm 1 mps 587 mmHg 74%
    08:00 +16°C° 0 mm 1 mps 588 mmHg 65%
    09:00 +18°C° 0 mm 2 mps 588 mmHg 56%
    10:00 +20°C° 0 mm 2 mps 589 mmHg 51%
    11:00 +21°C° 0 mm 2 mps 589 mmHg 46%
    12:00 +24°C° 0 mm 2 mps 590 mmHg 41%
    13:00 +24°C° 0.1 mm 1 mps 590 mmHg 39%
    14:00 +25°C° 0.1 mm 1 mps 590 mmHg 38%
    15:00 +26°C° 0.1 mm 1 mps 590 mmHg 36%
    16:00 +25°C° 0.1 mm 2 mps 590 mmHg 40%
    17:00 +24°C° 0.1 mm 2 mps 589 mmHg 45%
    18:00 +23°C° 0.1 mm 2 mps 589 mmHg 50%
    19:00 +20°C° 0 mm 2 mps 588 mmHg 57%
    20:00 +17°C° 0 mm 2 mps 588 mmHg 65%
    21:00 +15°C° 0 mm 2 mps 587 mmHg 73%
    22:00 +14°C° 0 mm 2 mps 587 mmHg 76%
    23:00 +13°C° 0 mm 2 mps 586 mmHg 80%

    26 June, Tuesday

    Time Temperature Precipitation Wind Pressure Humidity
    00:00 +12°C° 0 mm 2 mps 586 mmHg 84%
    01:00 +12°C° 0 mm 2 mps 586 mmHg 85%
    02:00 +12°C° 0 mm 2 mps 585 mmHg 85%
    03:00 +11°C° 0 mm 1 mps 585 mmHg 86%
    04:00 +12°C° 0 mm 1 mps 585 mmHg 83%
    05:00 +13°C° 0 mm 1 mps 586 mmHg 80%
    06:00 +13°C° 0 mm 1 mps 586 mmHg 77%
    07:00 +16°C° 0 mm 1 mps 587 mmHg 68%
    08:00 +18°C° 0 mm 2 mps 588 mmHg 59%
    09:00 +21°C° 0 mm 2 mps 589 mmHg 51%
    10:00 +23°C° 0 mm 2 mps 589 mmHg 46%
    11:00 +24°C° 0 mm 2 mps 589 mmHg 41%
    12:00 +26°C° 0 mm 2 mps 589 mmHg 36%
    13:00 +27°C° 0 mm 2 mps 589 mmHg 33%
    14:00 +27°C° 0 mm 2 mps 589 mmHg 31%
    15:00 +28°C° 0 mm 2 mps 589 mmHg 29%
    16:00 +27°C° 0 mm 2 mps 589 mmHg 32%
    17:00 +27°C° 0 mm 2 mps 589 mmHg 35%
    18:00 +26°C° 0 mm 2 mps 589 mmHg 39%
    19:00 +23°C° 0 mm 2 mps 588 mmHg 45%
    20:00 +19°C° 0 mm 2 mps 586 mmHg 51%
    21:00 +16°C° 0 mm 2 mps 585 mmHg 57%
    22:00 +15°C° 0 mm 2 mps 585 mmHg 61%
    23:00 +14°C° 0 mm 2 mps 585 mmHg 64%

    27 June, Wednesday

    Time Temperature Precipitation Wind Pressure Humidity
    00:00 +14°C° 0 mm 2 mps 584 mmHg 67%
    01:00 +13°C° 0 mm 2 mps 584 mmHg 69%
    02:00 +13°C° 0 mm 1 mps 584 mmHg 71%
    03:00 +12°C° 0 mm 1 mps 583 mmHg 73%
    04:00 +13°C° 0 mm 1 mps 584 mmHg 72%
    05:00 +14°C° 0 mm 1 mps 584 mmHg 71%
    06:00 +14°C° 0 mm 1 mps 585 mmHg 70%
    07:00 +18°C° 0 mm 1 mps 586 mmHg 61%
    08:00 +21°C° 0 mm 1 mps 587 mmHg 52%
    09:00 +23°C° 0 mm 1 mps 588 mmHg 43%
    10:00 +25°C° 0 mm 1 mps 588 mmHg 38%
    11:00 +26°C° 0 mm 2 mps 588 mmHg 32%
    12:00 +28°C° 0 mm 2 mps 589 mmHg 26%
    13:00 +28°C° 0 mm 2 mps 589 mmHg 25%
    14:00 +29°C° 0 mm 2 mps 589 mmHg 23%
    15:00 +29°C° 0 mm 2 mps 589 mmHg 22%
    16:00 +29°C° 0 mm 2 mps 589 mmHg 25%
    17:00 +28°C° 0 mm 1 mps 588 mmHg 29%
    18:00 +28°C° 0 mm 1 mps 588 mmHg 33%
    19:00 +24°C° 0 mm 1 mps 587 mmHg 38%
    20:00 +21°C° 0 mm 1 mps 586 mmHg 44%
    21:00 +16°C° 0 mm 1 mps 585 mmHg 49%
    22:00 +16°C° 0 mm 1 mps 585 mmHg 54%
    23:00 +15°C° 0 mm 1 mps 584 mmHg 59%
    Show more